EHI
7 3 0 0 0 0 0 0 0 0 1 4 7 10 14 15 13 9 12 34 63 62 40 36 47 48 38 24 12 6 3 3 2 2 2 1 0 1 1 1 0 0 0 0 0 0 0 0 0
3 1 0 0 0 0 0 0 0 0 2 3 5 9 14 18 20 17 18 43 73 71 51 46 55 56 46 31 16 7 3 2 1 1 1 0 0 0 0 0 0 0 0 0 0 0 0 0 0
0 0 0 0 0 0 0 0 1 3 4 5 6 9 12 18 23 22 30 59 82 79 66 63 68 67 55 38 23 12 5 1 0 0 0 0 0 0 0 0 0 0 0 0 0 0 0 0 0
0 0 0 0 0 0 1 2 4 7 8 9 13 15 14 20 28 32 44 68 84 81 74 73 76 71 57 42 27 16 8 2 0 0 0 0 0 0 0 0 0 0 0 0 0 0 0 0 0
0 0 0 0 0 0 1 3 7 12 14 19 26 24 22 31 44 46 51 68 81 78 70 69 72 67 56 42 28 18 10 3 0 0 0 0 0 0 0 0 0 0 0 0 0 0 0 0 0
0 0 0 0 0 0 1 2 7 13 18 25 33 30 26 36 46 44 48 61 71 69 61 57 57 54 49 38 27 20 13 6 1 0 0 0 0 0 0 0 0 0 0 0 0 0 0 0 0
0 0 0 0 0 0 1 2 6 12 17 22 28 28 26 29 32 33 40 51 56 55 52 45 37 35 34 28 23 19 13 7 3 1 0 0 0 0 0 0 0 0 0 0 0 0 0 0 0
0 0 0 0 0 1 2 2 5 10 15 17 19 23 26 26 29 33 38 42 42 41 37 31 23 19 18 15 14 12 8 5 3 1 0 0 0 0 0 0 0 0 0 0 0 0 0 0 0
0 0 0 0 1 2 2 2 4 10 14 15 17 22 28 32 37 42 40 36 31 24 19 16 13 10 8 6 5 4 3 3 2 1 0 0 0 0 1 1 1 0 0 0 0 0 0 0 0
0 0 0 0 1 2 2 2 5 10 12 13 16 23 31 39 46 48 40 29 20 12 7 5 4 4 3 3 2 1 1 1 2 1 0 0 0 0 1 2 2 0 0 0 0 0 0 0 0
0 0 0 0 0 1 2 4 8 11 10 11 15 23 33 43 48 47 36 23 13 8 5 3 2 1 2 2 1 0 0 1 1 1 0 0 0 0 1 2 2 1 1 0 0 0 0 0 0
0 0 0 0 0 2 4 6 10 12 10 10 13 19 30 40 45 43 35 24 17 13 11 8 5 4 4 4 2 1 2 2 1 0 0 0 0 0 0 1 2 2 1 0 0 1 0 0 0
0 0 0 0 1 4 7 9 10 10 10 11 12 14 23 34 41 42 38 31 29 26 21 16 14 13 11 8 6 4 5 5 3 1 1 1 0 0 1 2 2 2 1 0 0 0 0 0 0
0 0 0 0 2 3 7 10 12 10 11 15 15 15 20 29 37 39 38 40 42 40 33 25 24 24 21 16 13 10 8 7 5 2 2 1 0 0 1 1 1 1 0 0 0 0 0 0 0
0 0 0 0 1 1 4 10 12 11 14 18 19 18 20 24 29 31 35 44 49 48 40 31 28 28 26 23 19 14 8 6 3 1 1 0 0 0 0 0 0 0 0 0 0 0 0 0 0
0 0 0 0 0 0 3 7 10 12 15 19 19 18 18 19 21 26 33 40 45 44 38 29 23 23 22 19 15 10 5 2 1 0 0 0 0 0 0 0 0 0 0 0 0 0 0 0 0
0 0 0 0 0 1 2 5 8 12 14 16 15 15 15 15 17 23 30 34 34 32 27 22 17 14 12 9 6 4 2 0 0 0 0 0 0 0 0 0 0 0 0 0 0 0 0 0 0
0 0 0 0 1 2 4 7 9 12 14 12 10 10 11 13 14 19 26 29 26 22 19 17 15 11 6 3 2 2 1 0 0 0 0 0 0 0 0 0 0 0 0 0 0 0 0 0 0
0 0 1 1 2 4 7 8 10 12 13 10 7 7 9 12 14 17 21 22 20 17 16 15 14 10 4 1 1 1 1 0 0 0 0 0 0 0 0 0 0 0 0 0 0 0 0 0 0
0 0 1 2 2 4 6 7 7 10 11 9 6 5 8 11 14 16 16 15 15 16 14 13 12 9 4 1 0 0 0 0 0 0 0 0 0 0 0 0 0 0 0 0 0 0 0 0 0
0 0 1 1 1 1 2 3 4 5 6 5 5 5 7 9 12 13 12 10 11 12 11 10 9 7 4 2 1 0 0 0 0 0 0 0 0 0 0 0 0 0 0 0 0 0 0 0 0
0 0 0 0 0 0 0 1 1 2 2 2 2 3 5 6 6 7 7 6 7 8 9 8 7 6 5 3 2 1 0 0 0 0 0 0 0 0 0 0 0 0 0 0 0 0 0 0 0
0 0 0 0 0 0 0 0 0 1 2 2 2 3 4 3 3 3 4 5 7 9 10 10 8 6 4 2 1 1 0 0 0 0 0 0 0 0 0 0 0 0 0 0 0 0 0 0 0
0 0 0 0 0 0 0 0 0 1 2 3 4 5 5 3 2 4 6 8 11 14 16 15 10 6 2 1 0 0 0 0 0 0 0 0 0 0 0 0 0 0 0 0 0 0 0 0 0
0 0 0 0 0 0 0 0 0 0 1 3 5 6 6 5 4 7 12 13 15 18 19 16 12 7 3 1 0 0 0 0 0 0 0 0 0 0 0 0 0 0 0 0 0 0 0 0 0
0 0 0 0 0 0 0 0 0 0 1 3 5 8 9 8 8 11 13 13 14 17 18 14 10 7 3 1 0 0 0 0 0 0 0 0 0 0 0 0 0 0 0 0 0 0 0 0 0
0 0 0 0 0 0 0 0 0 0 0 1 5 9 12 11 10 9 9 9 10 14 14 11 9 6 3 1 0 0 0 0 0 0 0 0 0 0 0 0 0 0 0 0 0 0 0 0 0
0 0 0 0 0 0 0 0 0 0 0 1 4 10 12 11 8 5 5 5 6 8 9 9 8 6 4 2 1 1 0 0 0 0 0 0 0 0 0 0 0 0 0 0 0 0 0 0 0
0 0 0 0 0 0 0 0 0 0 0 1 4 8 9 8 5 2 2 3 2 3 5 7 8 7 4 2 2 2 1 1 2 2 1 1 1 0 0 0 0 0 0 0 0 0 0 0 0
0 0 0 0 0 0 0 0 0 0 0 1 4 6 7 6 3 1 1 1 1 2 4 6 8 7 3 1 2 3 3 4 4 4 4 3 2 1 0 0 0 0 0 0 0 0 0 0 0
Wind_Speed
9 6 3 1 2 3 3 5 4 4 2 1 1 5 7 5 4 5 7 16 19 16 13 16 18 18 18 18 18 18 18 17 17 17 16 16 15 15 14 14 14 13 12 12 12 11 11 11 11
6 5 2 1 2 0 5 5 5 5 2 3 5 4 6 7 9 10 9 16 19 16 11 14 19 19 19 18 18 17 17 17 17 16 16 15 14 14 13 13 13 12 12 11 11 11 10 10 10
5 4 2 2 1 4 5 6 7 3 2 2 3 2 5 7 9 6 11 18 16 13 10 14 20 19 19 18 17 17 17 17 16 16 15 15 14 13 12 12 12 12 12 11 10 10 9 9 8
3 2 1 1 5 8 8 9 6 4 2 2 5 5 4 5 6 13 18 17 16 12 10 14 19 19 18 18 17 17 17 17 16 15 15 14 13 13 12 11 11 11 11 10 10 9 8 7 7
2 3 1 3 6 6 7 7 5 5 4 5 8 7 6 7 18 20 18 17 15 12 9 12 18 19 18 17 17 16 16 16 16 15 14 13 13 12 12 11 10 10 10 9 9 8 7 6 6
2 2 1 4 6 5 3 2 6 8 10 10 9 8 4 9 17 17 16 15 14 13 11 12 17 18 18 17 17 16 16 16 15 15 14 13 12 11 11 10 10 10 9 9 8 7 7 6 4
2 1 2 4 5 5 5 4 4 6 8 5 7 7 5 7 12 14 14 14 12 12 10 8 10 12 16 17 16 16 16 15 14 13 13 12 12 11 10 9 9 10 9 9 8 8 6 5 4
4 2 3 4 4 4 3 5 5 7 7 5 4 7 9 10 12 13 13 13 12 9 8 8 7 7 7 10 15 16 15 14 13 13 12 11 11 10 10 8 8 9 9 8 8 7 7 5 4
2 2 4 4 2 3 2 5 5 6 8 4 2 4 9 12 12 13 13 11 10 9 6 6 7 6 6 6 11 12 13 13 11 10 11 8 4 4 5 8 9 9 8 8 7 7 7 6 5
4 3 7 6 3 1 4 5 4 5 8 5 4 6 8 11 12 11 12 12 12 11 9 7 7 7 6 6 6 4 5 5 4 3 4 3 3 3 5 6 10 9 9 8 8 7 6 5 2
5 7 6 4 1 3 5 5 5 7 5 5 8 6 7 9 9 8 9 11 12 12 11 9 8 7 6 4 4 2 2 3 3 4 4 3 2 1 2 2 3 4 5 3 3 4 2 2 2
4 4 3 2 1 3 4 4 6 6 3 6 10 8 6 8 8 7 8 9 9 9 9 8 8 6 5 5 4 3 3 3 2 3 4 3 2 2 1 1 1 1 1 2 2 2 3 2 2
1 1 1 1 5 7 8 8 8 6 5 9 10 7 6 6 6 7 7 8 8 8 8 8 8 7 5 5 4 4 3 3 3 3 3 4 3 2 2 2 1 2 2 2 2 2 2 2 2
3 2 2 3 3 4 8 6 7 4 6 10 9 6 4 5 6 7 6 8 8 9 7 7 8 7 6 4 4 4 4 3 3 3 4 4 3 3 2 2 1 1 1 2 2 2 2 1 1
2 4 5 3 2 2 7 7 6 5 7 9 8 7 5 3 5 7 7 7 9 9 7 7 8 7 7 6 5 4 4 4 3 3 3 4 3 3 2 2 1 1 1 1 1 1 1 1 1
4 4 3 4 2 2 7 4 3 4 8 9 9 8 6 4 4 6 7 7 8 8 7 6 7 7 6 5 4 3 3 4 3 3 3 4 4 4 3 1 0 0 1 1 1 1 1 0 1
4 2 3 4 3 2 6 4 3 4 6 8 7 8 7 5 5 5 6 6 6 7 7 5 6 6 5 5 4 3 3 3 3 3 3 3 3 4 3 1 1 1 1 1 1 1 1 1 1
5 3 2 2 1 4 5 4 4 4 5 6 6 6 6 5 5 5 6 7 6 5 6 6 5 5 5 4 3 3 3 2 2 2 3 4 3 3 3 2 1 1 1 1 0 0 0 1 1
4 3 1 2 2 4 5 5 4 4 4 5 4 5 5 5 5 5 7 8 7 5 5 5 5 4 4 3 3 2 2 1 1 1 3 3 2 3 3 2 1 1 1 0 0 1 0 1 1
0 1 1 0 1 4 4 3 3 4 5 7 7 6 6 5 6 6 5 5 6 6 5 5 5 5 4 3 2 2 2 1 1 1 1 2 2 3 3 3 2 1 1 1 1 1 1 1 1
1 2 3 3 3 5 4 2 1 3 4 5 6 5 6 9 10 9 8 7 7 7 8 7 6 5 4 4 2 3 3 3 2 2 1 0 1 2 2 3 2 2 2 1 1 1 2 0 1
1 2 5 6 4 1 2 0 3 4 4 6 8 8 8 8 9 9 9 9 9 8 7 7 6 6 5 5 4 4 3 2 1 1 0 1 1 1 2 2 2 2 2 2 1 2 1 2 0
4 4 5 5 5 3 2 1 5 2 5 9 11 12 10 10 11 10 10 10 9 8 7 6 6 6 5 5 6 6 4 2 1 1 2 2 2 2 1 2 2 2 2 1 1 1 1 1 2
8 6 5 5 5 3 1 2 5 5 9 10 11 13 12 12 11 10 9 8 7 7 7 7 7 5 5 6 6 6 5 4 3 2 2 1 1 2 2 2 2 2 1 1 1 0 0 0 1
3 6 5 6 5 3 2 2 8 8 8 11 14 15 14 12 11 10 9 9 9 9 8 7 8 6 5 6 5 6 6 5 5 3 2 1 1 1 1 1 1 1 1 1 0 0 1 1 1
3 7 6 3 3 3 2 3 8 6 7 9 11 13 13 12 11 11 11 11 10 11 10 9 8 7 6 6 5 5 5 4 3 3 3 2 1 1 1 1 1 0 1 1 1 1 1 1 1
2 2 6 7 2 1 3 6 8 1 4 8 11 12 13 13 13 12 11 11 11 11 11 11 10 8 7 7 6 5 5 5 4 3 3 2 2 2 2 1 1 1 1 1 1 1 2 2 2
5 4 5 5 4 2 3 4 5 5 6 9 12 13 13 12 12 12 11 11 11 11 10 9 9 9 8 7 6 5 5 5 5 3 3 3 3 2 2 1 1 2 2 2 2 2 3 3 3
1 3 5 3 5 6 3 8 9 11 10 11 13 14 14 14 14 13 11 11 10 10 10 9 9 8 7 7 6 6 5 5 4 4 4 4 3 3 3 3 3 3 3 3 3 3 4 4 4
2 4 7 5 4 5 4 9 6 10 11 11 12 13 13 14 13 12 12 11 10 11 10 10 9 8 8 7 7 7 6 5 5 4 4 4 4 4 4 4 4 4 4 4 4 5 4 4 5
Wind_Direction
161 158 157 126 59 45 264 252 250 268 282 321 32 116 124 103 135 138 124 135 135 140 144 143 141 139 136 133 130 129 127 126 125 124 123 122 122 121 120 119 117 114 111 109 108 107 105 105 106
157 162 144 65 93 53 269 246 253 272 204 99 42 56 89 73 81 99 114 134 134 136 139 142 141 139 138 137 135 134 133 133 132 131 129 128 127 126 125 123 121 119 116 113 111 110 108 107 108
179 177 137 110 166 198 245 250 240 262 219 144 100 39 71 99 105 100 128 133 128 131 134 142 140 140 140 139 138 138 137 137 137 136 135 134 133 132 129 127 126 124 122 120 118 115 113 112 109
160 124 49 123 237 235 229 240 210 171 106 100 117 74 50 84 106 126 133 133 128 128 130 139 139 140 141 141 141 140 140 141 141 141 140 140 139 138 136 135 132 130 129 127 126 124 121 118 112
105 106 56 285 261 255 247 234 186 130 112 104 99 89 55 65 116 127 131 132 130 127 127 135 137 140 142 143 143 143 143 144 144 144 144 145 145 144 143 143 143 140 139 138 136 135 133 129 123
74 100 84 278 284 290 286 179 113 109 114 113 98 89 68 122 126 130 130 129 130 131 130 135 139 142 144 145 145 145 145 147 147 148 150 150 150 149 148 148 147 148 146 147 147 147 148 145 139
148 131 235 269 300 332 1 69 107 119 116 114 121 106 117 142 135 131 128 127 128 132 133 135 141 144 146 147 147 147 148 149 150 152 153 153 153 152 153 152 154 156 156 158 160 161 164 167 171
175 92 312 300 311 315 353 49 72 103 105 107 105 130 157 161 139 129 125 122 125 131 137 138 139 142 143 146 150 150 151 152 153 155 156 158 159 160 162 162 167 166 168 170 173 175 178 187 203
156 74 276 265 259 286 9 57 62 66 106 101 80 122 145 136 125 122 122 121 133 143 151 148 146 146 143 148 156 153 153 156 157 160 161 159 160 166 173 177 180 179 179 181 186 192 196 200 217
144 177 240 234 216 185 61 63 100 87 87 92 86 92 114 121 118 123 136 145 157 161 168 164 159 157 157 161 147 149 151 150 151 156 155 149 157 186 182 188 187 188 191 191 197 205 209 207 214
186 205 238 263 263 101 90 59 63 107 88 130 140 130 119 116 112 128 149 155 163 167 167 164 165 165 165 150 148 150 140 144 154 162 156 149 156 179 171 172 194 197 197 189 203 215 216 206 205
225 255 255 267 312 75 94 102 75 73 142 147 136 132 113 111 123 132 158 153 150 156 160 156 158 155 156 145 149 149 151 157 163 170 163 153 147 135 135 158 167 168 176 179 185 209 219 218 220
315 273 338 60 82 94 94 87 95 81 102 111 112 110 111 119 133 135 149 135 144 145 148 149 138 136 135 135 143 140 145 149 159 153 153 148 140 141 149 156 159 175 183 176 180 204 216 212 215
299 324 345 357 56 69 94 91 87 93 109 113 111 113 112 111 128 129 140 145 147 138 143 140 129 129 124 124 127 136 139 141 142 141 144 135 131 136 140 141 156 177 183 177 176 190 200 202 211
338 345 342 346 22 105 97 64 88 127 118 115 114 116 115 112 141 149 154 153 145 139 134 133 128 124 125 131 129 130 136 136 130 131 135 130 134 139 135 135 138 201 189 158 148 182 146 187 231
356 2 328 319 18 58 90 93 130 144 132 125 134 138 142 148 161 157 149 150 137 134 133 139 135 127 127 127 122 123 128 128 130 134 135 138 141 138 130 131 175 237 121 119 130 133 122 223 249
358 312 285 318 8 68 96 145 179 159 142 137 140 143 147 154 151 156 154 142 136 137 137 131 128 131 127 119 113 112 115 131 142 144 141 141 139 136 133 142 174 122 110 121 149 131 155 229 280
264 254 258 273 322 87 96 134 164 165 153 152 143 139 157 166 165 165 145 136 132 129 126 127 122 123 115 104 95 87 98 123 135 147 158 151 145 139 135 142 130 94 88 74 85 135 198 209 264
228 219 219 253 188 103 113 131 166 181 153 145 149 164 167 169 173 159 146 141 136 131 128 127 129 131 127 115 116 119 129 148 151 168 164 154 149 138 134 121 99 96 103 125 161 134 40 319 0
174 181 174 315 99 105 120 133 172 184 177 171 179 182 165 163 160 157 155 149 150 149 149 146 149 147 141 137 146 146 137 139 142 123 117 142 144 145 144 140 136 124 108 70 58 97 97 335 61
54 162 172 161 97 69 99 35 164 195 166 188 197 185 181 180 170 169 169 173 167 169 172 164 161 150 145 135 109 83 67 55 44 38 28 3 140 149 144 154 150 144 130 124 102 117 128 162 331
191 192 139 127 102 16 80 222 253 198 191 199 202 201 200 192 177 175 174 177 178 179 170 158 154 147 142 130 115 114 115 115 145 164 60 10 35 82 142 147 142 137 127 125 124 115 128 137 276
167 123 99 102 105 68 32 103 282 180 201 203 199 199 201 195 184 180 180 180 177 172 164 159 149 145 141 129 125 116 114 128 123 80 65 36 11 18 72 114 112 113 114 116 93 74 86 149 178
132 85 63 54 67 43 270 156 264 220 207 195 194 197 200 193 188 184 181 174 174 168 161 157 149 148 142 131 128 130 131 128 106 84 75 39 17 18 44 96 101 107 111 114 106 75 18 212 205
107 89 31 7 15 279 258 205 245 228 206 189 184 190 194 188 184 180 177 174 174 169 165 158 152 150 148 139 139 143 143 137 135 138 131 113 70 33 17 83 100 124 179 187 149 122 284 268 253
189 139 155 192 221 282 309 250 256 233 198 184 180 183 185 184 183 181 181 175 174 172 166 160 158 156 158 154 158 157 150 146 154 156 154 156 169 183 174 128 129 215 241 242 201 230 255 250 257
138 163 160 131 113 73 296 295 303 210 164 171 174 176 184 186 184 182 179 175 171 170 170 167 163 162 168 168 163 161 160 160 166 168 157 166 190 188 170 158 171 251 255 253 235 242 258 263 259
147 145 85 105 144 202 264 261 242 219 196 182 177 182 187 182 181 180 177 174 171 171 168 166 165 169 175 173 172 170 172 171 170 164 173 190 203 196 192 219 237 256 263 259 244 248 253 255 262
119 106 112 121 158 155 211 255 222 203 193 190 190 185 183 181 181 179 177 173 168 165 165 169 172 171 175 175 172 166 174 174 170 177 194 197 198 200 205 218 231 248 256 255 243 249 253 250 261
173 170 146 149 219 172 178 258 238 191 193 190 194 190 184 183 182 177 171 167 166 168 170 173 177 179 182 178 172 175 178 176 181 196 204 198 203 213 217 222 230 243 247 245 240 252 255 245 250